Regional Weather Roundup
Issued by NWS

Home | Current Version | Previous Version | Graphics & Text | Print | Product List | Glossary On
Versions: 1 2 3 4 5 6 7 8 9 10 11 12 13 14 15 16 17 18 19 20 21 22 23 24 25 26 27
000
ASUS45 KGTF 280210
RWRMT
MONTANA HOURLY WEATHER ROUNDUP
NATIONAL WEATHER SERVICE GREAT FALLS MT
800 PM MDT MON APR 27 2015

NOTE: "FAIR" INDICATES FEW OR NO CLOUDS BELOW 12000 FEET WITH NO
SIGNIFICANT WEATHER AND/OR OBSTRUCTIONS TO VISIBILITY.

MTZ001>007-043-280300-
WEST OF THE DIVIDE

CITY           SKY/WX    TMP DP  RH WIND       PRES   REMARKS
KALISPELL      CLEAR     57  32  38 S8        30.21S
MISSOULA       CLEAR     59  36  42 S6        30.23S
BUTTE          CLEAR     54  27  35 W9        30.26S
DEER LODGE       N/A     54  28  37 NW8       30.29S
EUREKA           N/A     68  30  24 CALM      30.18F
HAMILTON         N/A     61  23  23 CALM      30.24S
LIBBY            N/A     64  30  27 NW3       30.19F
$$

MTZ008-052>055-280300-
SOUTHWEST MONTANA

CITY           SKY/WX    TMP DP  RH WIND       PRES   REMARKS
BOZEMAN        CLEAR     51  35  54 E7        30.26S
DILLON         CLEAR     54  30  40 SE6       30.25S
$$

MTZ009-010-012-014-046-048-049-054-280300-
EAST SLOPES AND CENTRAL MONTANA

CITY           SKY/WX    TMP DP  RH WIND       PRES   REMARKS
CUT BANK       CLEAR     58  28  32 SW10      30.17S
GREAT FALLS    CLEAR     57  33  40 SW6       30.18S
MALMSTROM AFB  CLEAR     56  34  42 S10       30.19S
HELENA         CLEAR     58  33  39 E12       30.21R
$$

MTZ011-013-016-021-045-047-050-051-280300-
NORTH CENTRAL MONTANA

CITY           SKY/WX    TMP DP  RH WIND       PRES   REMARKS
HAVRE          CLEAR     59  32  36 S9        30.18S
LEWISTOWN      CLEAR     56  32  40 NE3       30.24S
CHINOOK          N/A     63  28  27 E5        30.19F
FORT BENTON      N/A     61  30  31 SE5       30.19S
$$

MTZ017>020-022>042-056>058-061-062-280300-
EASTERN PLAINS

CITY           SKY/WX    TMP DP  RH WIND       PRES   REMARKS
BAKER          CLEAR     43  36  76 CALM      30.32F
BILLINGS       PTCLDY    55  34  45 E8        30.25S
GLASGOW        PTCLDY    53  34  48 SE8       30.26S
JORDAN           N/A     55  33  43 SE6       30.27S
LIVINGSTON     CLEAR     53  29  39 NW6       30.26R
MILES CITY     MOCLDY    50  36  58 E3        30.30S
SIDNEY         CLEAR     48  37  66 S5        30.30R
WOLF POINT     MOCLDY    56  37  49 SW6       30.27S
BIG TIMBER       N/A     54  30  40 N5        30.27R
FORSYTH          N/A     50  37  62 E5        30.29S
PLENTYWOOD       N/A     55  28  35 SW3       30.25S
POPLAR           N/A     55  34  44 SW3       30.27F
$$

REGIONAL REPORTS...DAKOTAS

CITY           SKY/WX    TMP DP  RH WIND       PRES   REMARKS
WILLISTON      PTCLDY    52  38  58 SW7       30.27S
MINOT          CLEAR     50  39  66 S6        30.26S
DICKINSON      CLEAR     44  37  76 W3        30.29S
BEACH          FAIR      45  37  76 SW3       30.32S
CROSBY         FAIR      50  32  50 CALM      30.26S
WATFORD CITY   FAIR      48  39  71 S7        30.27S
BISMARCK       CLOUDY    49  40  71 NW10      30.31R
GRAND FORKS    CLOUDY    51  41  68 N14G23    30.23R
FARGO          MOCLDY    58  40  51 N26G32    30.18R
BUFFALO SD       N/A     45  36  70 NW5       30.27S
RAPID CITY     LGT RAIN  45  39  79 N9        30.32R
$$

REGIONAL REPORTS...WYOMING/IDAHO/WASHINGTON

CITY           SKY/WX    TMP DP  RH WIND       PRES   REMARKS
GILLETTE       MOCLDY    48  36  63 CALM      30.30S
SHERIDAN       MOCLDY    49  39  68 SW3       30.29S
BUFFALO WY     CLOUDY    46  36  68 S6        30.32R
CODY           CLOUDY    50  36  57 E6        30.28S
YELLOWSTONE LA   N/A     39  29  67 CALM      30.32R
IDAHO FALLS    CLEAR     59  21  23 E3        30.24S
SALMON         CLEAR     61  28  29 W3        30.21R
BOISE          CLEAR     66  28  24 W7        30.17F
SPOKANE        MOCLDY    65  31  28 E7        30.19F
$$

REGIONAL REPORTS...ALBERTA

CITY           SKY/WX    TMP DP  RH WIND       PRES   REMARKS
EDMONTON       MOCLDY    61  30  31 S12       30.01F
CALGARY        MOCLDY    61  25  25 W14G21    30.10S
LETHBRIDGE     PTCLDY    63  30  29 W12       30.11S
MEDICINE HAT   PTCLDY    63  27  25 NW7       30.13R
$$

REGIONAL REPORTS...SASKATCHEWAN

CITY           SKY/WX    TMP DP  RH WIND       PRES   REMARKS
SWIFT CURRENT  CLEAR     54  27  35 S8        30.16S
REGINA         PTCLDY    54  34  47 W6        30.22R
SASKATOON      PTCLDY    52  34  50 SE10      30.16S
$$



USA.gov is the U.S. government's official web portal to all federal, state and local government web resources and services.